| time (UTC) | temp F | wind direction | speed knots | gust knots | rain 1hr in | rain 24hr in | rain mn in | humidity % | barometer mb |
| 20260507134808 | 63 | 280 | 8.7 | 0.0 | 0.00 | 0.00 | 0.00 | 88 | 1014.0 |
| 20260507133308 | 63 | 280 | 8.7 | 0.0 | 0.00 | 0.00 | 0.00 | 88 | 1014.0 |
| 20260507130308 | 70 | 270 | 5.2 | 0.0 | 0.00 | 0.00 | 0.00 | 57 | 1013.0 |
| 20260507124808 | 73 | 2.6 | 0.0 | 0.00 | 0.00 | 0.00 | 44 | 1013.0 | |
| 20260507123346 | 73 | 2.6 | 0.0 | 0.00 | 0.00 | 0.00 | 44 | 1013.0 | |
| 20260507121808 | 75 | 1.7 | 0.0 | 0.00 | 0.00 | 0.00 | 47 | 1014.0 | |
| 20260507120308 | 75 | 1.7 | 0.0 | 0.00 | 0.00 | 0.00 | 47 | 1014.0 | |
| 20260507114808 | 72 | 1.7 | 0.0 | 0.00 | 0.00 | 0.00 | 50 | 1014.0 | |
| 20260507113323 | 72 | 0.9 | 0.0 | 0.00 | 0.00 | 0.00 | 53 | 1014.0 | |
| 20260507111808 | 72 | 0.9 | 0.0 | 0.00 | 0.00 | 0.00 | 53 | 1014.0 | |
| 20260507110308 | 72 | 0.9 | 0.0 | 0.00 | 0.00 | 0.00 | 53 | 1014.0 | |
| 20260507104807 | 68 | 1.7 | 0.0 | 0.00 | 0.00 | 0.00 | 56 | 1014.0 | |
| 20260507103308 | 68 | 1.7 | 0.0 | 0.00 | 0.00 | 0.00 | 56 | 1014.0 | |
| 20260507101808 | 66 | 0.9 | 0.0 | 0.00 | 0.00 | 0.00 | 60 | 1014.0 | |
| 20260507100308 | 66 | 0.9 | 0.0 | 0.00 | 0.00 | 0.00 | 60 | 1014.0 | |
| 20260507094808 | 61 | 280 | 2.6 | 0.0 | 0.00 | 0.00 | 0.00 | 68 | 1015.0 |
| 20260507093308 | 61 | 280 | 2.6 | 0.0 | 0.00 | 0.00 | 0.00 | 68 | 1015.0 |
| 20260507091809 | 59 | 0 | 0.0 | 0.0 | 0.00 | 0.00 | 0.00 | 77 | 1015.0 |
| 20260507090308 | 59 | 0 | 0.0 | 0.0 | 0.00 | 0.00 | 0.00 | 77 | 1015.0 |
| 20260507084808 | 59 | 0 | 0.0 | 0.0 | 0.00 | 0.00 | 0.00 | 72 | 1015.0 |
| 20260507083308 | 59 | 0 | 0.0 | 0.0 | 0.00 | 0.00 | 0.00 | 72 | 1015.0 |
| 20260507081808 | 59 | 250 | 0.9 | 0.0 | 0.00 | 0.00 | 0.00 | 68 | 1015.0 |
| 20260507080309 | 59 | 250 | 0.9 | 0.0 | 0.00 | 0.00 | 0.00 | 68 | 1015.0 |
| 20260507074808 | 59 | 280 | 0.9 | 0.0 | 0.00 | 0.00 | 0.00 | 68 | 1015.0 |
| 20260507073308 | 59 | 280 | 0.9 | 0.0 | 0.00 | 0.00 | 0.00 | 68 | 1015.0 |
| 20260507071808 | 59 | 0.9 | 0.0 | 0.00 | 0.00 | 0.00 | 68 | 1014.0 | |
| 20260507070308 | 59 | 0.9 | 0.0 | 0.00 | 0.00 | 0.00 | 68 | 1014.0 | |
| 20260507064808 | 57 | 0 | 0.0 | 0.0 | 0.00 | 0.00 | 0.00 | 67 | 1014.0 |
| 20260507063308 | 57 | 0 | 0.0 | 0.0 | 0.00 | 0.00 | 0.00 | 67 | 1014.0 |
| 20260507061820 | 57 | 0 | 0.0 | 0.0 | 0.00 | 0.00 | 0.00 | 67 | 1014.0 |
| 20260507060308 | 57 | 0 | 0.0 | 0.0 | 0.00 | 0.00 | 0.00 | 67 | 1014.0 |
| 20260507054808 | 55 | 80 | 0.9 | 0.0 | 0.00 | 0.00 | 0.00 | 72 | 1014.0 |
| 20260507053315 | 55 | 80 | 0.9 | 0.0 | 0.00 | 0.00 | 0.00 | 72 | 1014.0 |
| 20260507051808 | 55 | 0.9 | 0.0 | 0.00 | 0.00 | 0.00 | 72 | 1014.0 | |
| 20260507050308 | 55 | 0.9 | 0.0 | 0.00 | 0.00 | 0.00 | 72 | 1014.0 | |
| 20260507044808 | 52 | 0 | 0.0 | 0.0 | 0.00 | 0.00 | 0.00 | 82 | 1014.0 |
| 20260507043308 | 52 | 0 | 0.0 | 0.0 | 0.00 | 0.00 | 0.00 | 82 | 1014.0 |
| 20260507041808 | 48 | 0 | 0.0 | 0.0 | 0.00 | 0.00 | 0.00 | 87 | 1014.0 |
| 20260507040308 | 48 | 0 | 0.0 | 0.0 | 0.00 | 0.00 | 0.00 | 87 | 1014.0 |
| 20260507034808 | 48 | 0.9 | 0.0 | 0.00 | 0.00 | 0.00 | 87 | 1014.0 | |
| 20260507033307 | 48 | 0.9 | 0.0 | 0.00 | 0.00 | 0.00 | 87 | 1014.0 | |
| 20260507031808 | 48 | 80 | 0.9 | 0.0 | 0.00 | 0.00 | 0.00 | 87 | 1014.0 |
| 20260507030308 | 48 | 80 | 0.9 | 0.0 | 0.00 | 0.00 | 0.00 | 87 | 1014.0 |
| 20260507024808 | 48 | 0 | 0.0 | 0.0 | 0.00 | 0.00 | 0.00 | 87 | 1013.0 |
| 20260507023307 | 48 | 0 | 0.0 | 0.0 | 0.00 | 0.00 | 0.00 | 87 | 1013.0 |
| 20260507021808 | 48 | 0 | 0.0 | 0.0 | 0.00 | 0.00 | 0.00 | 87 | 1013.0 |
| 20260507020308 | 48 | 0 | 0.0 | 0.0 | 0.00 | 0.00 | 0.00 | 87 | 1013.0 |
| 20260507014808 | 50 | 240 | 0.9 | 0.0 | 0.00 | 0.00 | 0.00 | 82 | 1013.0 |
| 20260507013307 | 50 | 240 | 0.9 | 0.0 | 0.00 | 0.00 | 0.00 | 82 | 1013.0 |
| 20260507011808 | 52 | 240 | 2.6 | 0.0 | 0.00 | 0.00 | 0.00 | 77 | 1013.0 |
| 20260507010308 | 52 | 240 | 2.6 | 0.0 | 0.00 | 0.00 | 0.00 | 77 | 1013.0 |
| 20260507004807 | 50 | 260 | 2.6 | 0.0 | 0.00 | 0.00 | 0.00 | 82 | 1013.0 |
| 20260507003308 | 50 | 260 | 2.6 | 0.0 | 0.00 | 0.00 | 0.00 | 82 | 1013.0 |
| 20260507001808 | 52 | 260 | 2.6 | 0.0 | 0.00 | 0.00 | 0.00 | 77 | 1013.0 |
| 20260507000308 | 52 | 260 | 2.6 | 0.0 | 0.00 | 0.00 | 0.00 | 77 | 1013.0 |
| 20260506234808 | 54 | 240 | 2.6 | 0.0 | 0.00 | 0.00 | 0.00 | 72 | 1013.0 |
| 20260506233308 | 54 | 240 | 2.6 | 0.0 | 0.00 | 0.00 | 0.00 | 72 | 1013.0 |
| 20260506231808 | 54 | 270 | 4.3 | 0.0 | 0.00 | 0.00 | 0.00 | 77 | 1013.0 |
| 20260506230308 | 54 | 270 | 4.3 | 0.0 | 0.00 | 0.00 | 0.00 | 77 | 1013.0 |
| 20260506224807 | 57 | 230 | 2.6 | 0.0 | 0.00 | 0.00 | 0.00 | 63 | 1013.0 |
| 20260506223308 | 57 | 230 | 2.6 | 0.0 | 0.00 | 0.00 | 0.00 | 63 | 1013.0 |
| 20260506221808 | 55 | 270 | 4.3 | 0.0 | 0.00 | 0.00 | 0.00 | 67 | 1013.0 |
| 20260506220307 | 55 | 270 | 4.3 | 0.0 | 0.00 | 0.00 | 0.00 | 67 | 1013.0 |
| 20260506214824 | 59 | 250 | 2.6 | 0.0 | 0.00 | 0.00 | 0.00 | 63 | 1013.0 |
| 20260506213308 | 59 | 250 | 2.6 | 0.0 | 0.00 | 0.00 | 0.00 | 63 | 1013.0 |
| 20260506211808 | 57 | 260 | 4.3 | 0.0 | 0.00 | 0.00 | 0.00 | 67 | 1013.0 |
| 20260506210307 | 57 | 260 | 4.3 | 0.0 | 0.00 | 0.00 | 0.00 | 67 | 1013.0 |
| 20260506204809 | 61 | 1.7 | 0.0 | 0.00 | 0.00 | 0.00 | 59 | 1012.0 | |
| 20260506203308 | 61 | 1.7 | 0.0 | 0.00 | 0.00 | 0.00 | 59 | 1012.0 | |
| 20260506201808 | 61 | 1.7 | 0.0 | 0.00 | 0.00 | 0.00 | 59 | 1012.0 | |
| 20260506200308 | 61 | 1.7 | 0.0 | 0.00 | 0.00 | 0.00 | 59 | 1012.0 | |
| 20260506194827 | 64 | 250 | 2.6 | 0.0 | 0.00 | 0.00 | 0.00 | 49 | 1012.0 |
| 20260506193331 | 64 | 250 | 2.6 | 0.0 | 0.00 | 0.00 | 0.00 | 49 | 1012.0 |
| 20260506191808 | 66 | 0 | 0.0 | 0.0 | 0.00 | 0.00 | 0.00 | 46 | 1012.0 |
| 20260506190308 | 66 | 0 | 0.0 | 0.0 | 0.00 | 0.00 | 0.00 | 46 | 1012.0 |
| 20260506184813 | 68 | 2.6 | 0.0 | 0.00 | 0.00 | 0.00 | 43 | 1011.0 | |
| 20260506183308 | 68 | 2.6 | 0.0 | 0.00 | 0.00 | 0.00 | 43 | 1011.0 | |
| 20260506181808 | 68 | 310 | 7.0 | 0.0 | 0.00 | 0.00 | 0.00 | 43 | 1011.0 |
| 20260506180308 | 68 | 310 | 7.0 | 0.0 | 0.00 | 0.00 | 0.00 | 43 | 1011.0 |
| 20260506174808 | 70 | 330 | 6.1 | 0.0 | 0.00 | 0.00 | 0.00 | 43 | 1011.0 |
| 20260506173308 | 70 | 330 | 6.1 | 0.0 | 0.00 | 0.00 | 0.00 | 43 | 1011.0 |
| 20260506171808 | 73 | 330 | 6.1 | 0.0 | 0.00 | 0.00 | 0.00 | 41 | 1010.0 |
| 20260506170308 | 73 | 330 | 6.1 | 0.0 | 0.00 | 0.00 | 0.00 | 41 | 1010.0 |
| 20260506164808 | 77 | 330 | 6.1 | 0.0 | 0.00 | 0.00 | 0.00 | 32 | 1010.0 |
| 20260506163308 | 77 | 330 | 6.1 | 0.0 | 0.00 | 0.00 | 0.00 | 32 | 1010.0 |
| 20260506161808 | 79 | 300 | 5.2 | 0.0 | 0.00 | 0.00 | 0.00 | 28 | 1010.0 |
| 20260506160308 | 79 | 300 | 5.2 | 0.0 | 0.00 | 0.00 | 0.00 | 28 | 1010.0 |
| 20260506154808 | 79 | 310 | 7.0 | 0.0 | 0.00 | 0.00 | 0.00 | 26 | 1010.0 |
| 20260506153308 | 79 | 310 | 7.0 | 0.0 | 0.00 | 0.00 | 0.00 | 26 | 1010.0 |
| 20260506151808 | 77 | 320 | 7.0 | 0.0 | 0.00 | 0.00 | 0.00 | 30 | 1010.0 |
| 20260506150314 | 77 | 320 | 7.0 | 0.0 | 0.00 | 0.00 | 0.00 | 30 | 1010.0 |
| 20260506144808 | 81 | 240 | 9.6 | 0.0 | 0.00 | 0.00 | 0.00 | 23 | 1010.0 |
| 20260506143319 | 81 | 240 | 9.6 | 0.0 | 0.00 | 0.00 | 0.00 | 23 | 1010.0 |
| 20260506141808 | 81 | 170 | 8.7 | 0.0 | 0.00 | 0.00 | 0.00 | 21 | 1010.0 |
| 20260506140422 | 81 | 170 | 8.7 | 0.0 | 0.00 | 0.00 | 0.00 | 21 | 1010.0 |